Flag for Switzerland Weather past 2 weeks in Basel, Basel-Stadt, Switzerland

Now
60 °F

Partly sunny.


Feels Like: 60 °F
Forecast: 51 / 68 °F
Wind: 1 mph from Northeast

Location: Bale-Mulhouse

Current Time: Oct 2, 2014 at 12:53:12 PM

Latest Report: Oct 2, 2014 at 12:00 PM


Visibility: 4 mi

Pressure: 30.36 "Hg

Humidity: 91%

Dew point: 57 °F

Location of BaselLocation

Historic Weather in Basel — Graph

°F

Basel temperature yesterday

Maximum temperature yesterday: 71 °F (at 5:00 PM)
Minimum temperature yesterday: 56 °F (at 11:00 PM)
Average temperature yesterday: 62 °F

Past Weeks' High & Low Weather Summary

 TemperatureHumidityPressure
High78 °F (Sep 17, 4:00 PM)99% (Oct 2, 7:00 AM)30.38 "Hg (Oct 2, 7:00 AM)
Low40 °F (Sep 24, 6:00 AM)43% (Sep 28, 4:00 PM)29.80 "Hg (Sep 17, 4:00 PM)
Average60 °F83%30.14 "Hg
* Reported Sep 17 11:00 AM — Oct 2 11:00 AM, Basel, Weather by CustomWeather, © 2014

Note: Actual official high and low records may vary slightly from our data, if they occured in-between our weather recording intervals... More about our weather records

Advertising

Basel weather history for previous 24 hours

 ConditionsComfort  
Time TempWeatherWind HumidityBarometerVisibility
11:00 AM
Oct 2
57 °FFog.1 mph99%30.38 "Hg2 mi
10:00 AM56 °FFog.1 mph99%30.38 "Hg1 mi
9:00 AM55 °FFog.2 mph99%30.38 "Hg1 mi
8:00 AM53 °FFog.No wind99%30.37 "Hg0 mi
7:00 AM51 °FFog.2 mph99%30.37 "Hg1 mi
6:00 AM48 °FFog.1 mph96%30.37 "Hg1 mi
5:00 AM50 °FFog.1 mph98%30.37 "Hg2 mi
4:00 AM50 °FHeavy rain. Overcast.2 mph96%30.36 "Hg0 mi
3:00 AM51 °FHeavy rain. Passing clouds.2 mph95%30.37 "Hg1 mi
2:00 AM53 °FHeavy rain. Overcast.2 mph96%30.37 "Hg1 mi
1:00 AM54 °FPassing clouds.1 mph96%30.36 "Hg2 mi
12:00 AM55 °FPassing clouds.1 mph95%30.36 "Hg5 mi
11:00 PM
Oct 1
56 °FPassing clouds.1 mph95%30.35 "Hg7 mi
10:00 PM57 °FPassing clouds.6 mph94%30.34 "Hg7 mi
9:00 PM58 °FPassing clouds.5 mph90%30.33 "Hg12 mi
8:00 PM60 °FPassing clouds.3 mph87%30.31 "Hg12 mi
7:00 PM64 °FPassing clouds.5 mph79%30.29 "Hg12 mi
6:00 PM71 °FPassing clouds.3 mph62%30.27 "Hg12 mi
5:00 PM71 °FScattered clouds.5 mph58%30.27 "Hg16 mi
4:00 PM71 °FScattered clouds.6 mph62%30.27 "Hg16 mi
3:00 PM70 °FPassing clouds.5 mph65%30.29 "Hg12 mi
2:00 PM68 °FPassing clouds.5 mph71%30.31 "Hg9 mi
1:00 PM66 °FLow clouds.3 mph78%30.33 "Hg5 mi
12:00 PM62 °FFog.3 mph90%30.34 "Hg3 mi
Weather by CustomWeather, © 2014

See weather overviewHow to use our weather pages